Regional Weather Roundup
Issued by NWS

Home | Current Version | Previous Version | Text Only | Print | Product List | Glossary Off
Versions: 1 2 3 4 5 6 7 8 9 10 11 12 13 14 15 16 17 18 19 20 21 22 23 24 25 26 27 28 29 30 31 32 33 34 35 36 37 38 39 40 41 42 43 44 45 46 47 48 49 50

000
ASUS43 KFSD 190110
RWRSD

WEATHER ROUNDUP FOR SOUTH DAKOTA
NATIONAL WEATHER SERVICE SIOUX FALLS SD
800 PM CDT WED OCT 18 2017

NOTE: "FAIR" INDICATES FEW OR NO CLOUDS BELOW 12,000 FEET WITH NO
SIGNIFICANT WEATHER AND/OR OBSTRUCTIONS TO VISIBILITY.


SDZ001>005-009-010-012>017-190200-
NORTHWEST AND NORTH CENTRAL SOUTH DAKOTA

CITY           SKY/WX    TMP DP  RH WIND       PRES   REMARKS
BUFFALO          N/A     51  27  39 SE12      29.89F
FAITH            N/A     53  24  32 S14       29.98F
MOBRIDGE       CLOUDY    47  30  51 SE6       29.98R
$$

SDZ012>016-024>037-041>051-057-063-072>074-190200-
SOUTHWEST AND SOUTH CENTRAL SOUTH DAKOTA

CITY           SKY/WX    TMP DP  RH WIND       PRES   REMARKS
RAPID CTY ARPT CLEAR     54  28  36 SE12      30.00S
PIERRE         CLOUDY    56  25  30 S5        30.01S
CUSTER         CLOUDY    50  22  33 S3        30.09S
ELLSWORTH AFB  CLEAR     59  26  29 S14       29.98S
PHILIP         CLEAR     52  32  46 SE7       30.01F
PINE RIDGE     CLEAR     53  31  42 E7        30.03F
SPEARFISH      FAIR      55  28  35 S5        29.98F
WINNER         FAIR      51  33  50 SE7       30.06S
$$

SDZ004>011-016>023-039-040-190200-
NORTHEAST SOUTH DAKOTA

CITY           SKY/WX    TMP DP  RH WIND       PRES   REMARKS
ABERDEEN       CLOUDY    44  28  53 SW5       30.01S
WATERTOWN      CLOUDY    43  30  60 SW7       30.03R
BROOKINGS      CLOUDY    49  31  49 CALM      30.05
SISSETON         N/A     48  30  49 SW7       29.99R
$$

SDZ017-020-022-023-036>040-048>070-190200-
SOUTHEAST SOUTH DAKOTA

CITY           SKY/WX    TMP DP  RH WIND       PRES   REMARKS
SIOUX FALLS    CLOUDY    52  38  58 CALM      30.04R
HURON          CLEAR     46  33  60 CALM      30.04R
CHAMBERLAIN    CLOUDY    49  32  52 CALM      30.05S
MITCHELL       CLEAR     55  29  36 CALM      30.05S
YANKTON        CLEAR     52  38  58 NW9       30.05R
$$

ABBREVIATIONS USED IN REMARKS
   TC - TEMPERATURE IN CELSIUS
  WCI - WIND CHILL INDEX
   HX - HEAT INDEX
  VSB - VISIBILITY




USA.gov is the U.S. government's official web portal to all federal, state and local government web resources and services.